x

Port Aransas, Mustang Beach Airport Weather Station

6:15pm - Tue 25th Jul 2017 All times are CDT. -5 hours from GMT.

  • Wind
    13mph, 17mph gusts
  • Air Temp 86°f
  • Sea Pressure 1016.6mb
  • Port Aransas, Mustang Beach Airport
  • Port Aransas, Mustang Beach Airport

More Historic Weather Station data

Upgrade to MSW Pro to gain access to the past 30 days of data for over 8000 Wavebouys and Weather Stations around the globe.

Join Pro

Comparision Forecast

View Surf forecast
   
Tue 07/25 6:15pm 13 17 mph 1016.6mb 86f
5:55pm 13
mph
1016.9mb 86f
5:15pm 13
mph
1016.9mb 88f
4:55pm 13 20 mph 1017.3mb 89f
4:15pm 13 20 mph 1017.3mb 90f
3:55pm 14
mph
1017.6mb 89f
3:15pm 12
mph
1017.6mb 88f
2:55pm 12
mph
1018mb 88f
2:15pm 10 18 mph 1018.3mb 89f
1:55pm 12 16 mph 1018.6mb 89f
1:15pm 9
mph
1018.6mb 89f
12:55pm 12
mph
1018.6mb 89f
12:15pm 9 16 mph 1018.6mb 88f
11:55am 10
mph
1018.6mb 88f
11:15am 10
mph
1018.6mb 88f
10:55am 13
mph
1018.6mb 87f
10:15am 10 17 mph 1018.3mb 87f
9:55am 9
mph
1018.3mb 87f
9:15am 10
mph
1018mb 86f
8:55am 13
mph
1018mb 86f
8:15am 10
mph
1018mb 84f
7:55am 9
mph
1017.6mb 84f
7:15am 10
mph
1017.3mb 83f
6:55am 10
mph
1017.3mb 83f
6:15am 13 16 mph 1016.9mb 83f
5:55am 12 17 mph 1016.6mb 83f
5:15am 13 20 mph 1016.3mb 83f
4:55am 12 18 mph 1016.3mb 83f
4:15am 13 20 mph 1016.3mb 83f
3:55am 14
mph
1015.9mb 83f
3:15am 12 18 mph 1015.9mb 83f
2:55am 14 21 mph 1015.9mb 83f
2:15am 14 20 mph 1015.9mb 83f
1:55am 13 22 mph 1015.9mb 83f
1:15am 16 22 mph 1015.9mb 83f
12:55am 17
mph
1016.3mb 83f
12:15am 18 24 mph 1015.9mb 83f
Mon 07/24 11:55pm 14 21 mph 1015.9mb 83f
11:15pm 17 22 mph 1015.9mb 83f
10:55pm 17 21 mph 1015.6mb 83f
10:15pm 14 20 mph 1015.2mb 83f
9:55pm 16 20 mph 1015.2mb 83f
8:55pm 12 22 mph 1014.9mb 84f
8:15pm 14 20 mph 1014.9mb 84f
7:55pm 15 22 mph 1014.6mb 84f
7:15pm 17 21 mph 1013.9mb 85f
6:55pm 13
mph
1013.9mb 85f
6:15pm 15 22 mph 1013.9mb 86f
5:55pm 15 22 mph 1013.9mb 87f
5:15pm 17 22 mph 1013.9mb 87f
4:55pm 14 22 mph 1013.9mb 88f
4:15pm 17 23 mph 1014.2mb 88f
3:55pm 12 21 mph 1014.6mb 88f
3:15pm 13 20 mph 1014.9mb 88f
2:55pm 14 21 mph 1014.9mb 88f
2:15pm 15 21 mph 1015.2mb 88f
1:55pm 15 20 mph 1015.2mb 88f
1:15pm 13 20 mph 1015.6mb 89f
12:55pm 14 21 mph 1015.6mb 88f
12:15pm 14 20 mph 1015.6mb 88f
11:55am 14 20 mph 1015.9mb 88f
11:15am 14 18 mph 1015.9mb 87f
10:55am 16
mph
1015.6mb 87f
10:15am 15
mph
1015.6mb 86f
9:55am 13 20 mph 1015.2mb 86f
9:15am 15 20 mph 1015.2mb 85f
8:55am 13 22 mph 1014.9mb 85f
8:15am 15 21 mph 1014.6mb 83f
7:55am 15 21 mph 1014.6mb 83f
7:15am 13
mph
1014.6mb 82f
6:55am 16 21 mph 1014.2mb 82f
6:15am 16 21 mph 1013.9mb 82f
5:55am 17 24 mph 1013.5mb 83f
5:15am 16 22 mph 1013.5mb 82f
4:55am 15 22 mph 1013.5mb 82f
4:15am 15 24 mph 1013.5mb 83f
3:55am 20 25 mph 1012.9mb 83f
3:15am 15
mph
1012.9mb 83f
2:55am 17 23 mph 1013.2mb 83f
2:15am 20 25 mph 1012.9mb 83f
1:55am 17 25 mph 1013.2mb 83f
1:15am 17 23 mph 1013.5mb 83f
12:55am 16 22 mph 1013.5mb 83f
12:15am 18 23 mph 1013.5mb 83f
Sun 07/23 11:55pm 16 25 mph 1013.5mb 83f
11:15pm 16 24 mph 1013.5mb 84f
10:55pm 15 21 mph 1013.5mb 83f
10:15pm 15 23 mph 1013.5mb 84f
9:55pm 15 21 mph 1013.2mb 84f
9:15pm 20 28 mph 1011.9mb 84f
8:55pm 17 27 mph 1011.9mb 84f
8:15pm 21 31 mph 1011.9mb 84f
7:55pm 17 24 mph 1011.9mb 85f
7:15pm 18 25 mph 1011.9mb 85f
6:55pm 18 27 mph 1011.5mb 86f
6:15pm 17 25 mph 1011.2mb 87f
5:55pm 18 24 mph 1011.2mb 87f
5:15pm 21 28 mph 1011.2mb 88f
4:55pm 21 28 mph 1011.2mb 87f
4:15pm 18 27 mph 1011.9mb 88f
3:55pm 22 28 mph 1012.2mb 88f
3:15pm 20 25 mph 1012.9mb 88f
2:55pm 18 25 mph 1013.2mb 88f
2:15pm 18 25 mph 1013.5mb 89f
1:55pm 15
mph
1013.9mb 89f
1:15pm 16 24 mph 1014.2mb 89f
12:55pm 18 24 mph 1014.2mb 89f
12:15pm 20 27 mph 1014.6mb 89f
11:55am 18 27 mph 1014.2mb 88f
11:15am 16 25 mph 1014.2mb 88f
10:55am 20 24 mph 1013.9mb 88f
10:15am 18 25 mph 1014.2mb 87f
9:55am 18 27 mph 1013.9mb 86f
9:15am 20 23 mph 1013.5mb 86f
8:55am 16 24 mph 1013.5mb 85f
8:15am 21 27 mph 1013.2mb 84f
7:50am 16 23 mph 1012.9mb 84f
7:15am 18 23 mph 1012.9mb 83f
6:55am 17 23 mph 1012.9mb 83f
6:15am 17 29 mph 1012.5mb 83f
5:55am 20 28 mph 1012.5mb 83f
5:15am 16 24 mph 1012.2mb 83f
4:55am 17 25 mph 1012.2mb 83f
4:15am 17 24 mph 1012.2mb 84f
3:55am 16 24 mph 1012.2mb 84f
3:15am 17 24 mph 1012.9mb 83f
2:55am 17 23 mph 1012.9mb 84f
2:15am 15 22 mph 1013.2mb 83f
1:55am 18 23 mph 1013.5mb 83f
12:55am 16 21 mph 1013.5mb 83f
12:15am 17 23 mph 1013.9mb 84f
Sat 07/22 11:55pm 16 23 mph 1013.5mb 84f
11:15pm 16 23 mph 1013.5mb 84f
10:55pm 15 23 mph 1013.2mb 84f
10:15pm 18 24 mph 1013.2mb 83f
9:55pm 18 24 mph 1012.9mb 84f
9:15pm 17 24 mph 1012.5mb 84f
8:55pm 15 22 mph 1012.5mb 84f
8:15pm 18 23 mph 1012.2mb 85f
7:55pm 18 23 mph 1012.2mb 85f
7:15pm 16 23 mph 1011.9mb 86f
6:55pm 15 23 mph 1011.9mb 86f
6:15pm 15 24 mph 1012.2mb 87f
5:55pm 16 22 mph 1012.2mb 87f
5:15pm 16 23 mph 1012.9mb 87f
4:55pm 17
mph
1012.9mb 87f
4:15pm 15 22 mph 1013.2mb 87f
3:55pm 16 22 mph 1013.2mb 87f
3:15pm 15 22 mph 1013.5mb 89f
2:55pm 15 21 mph 1013.9mb 89f
2:15pm 13 18 mph 1014.2mb 89f
1:55pm 14 18 mph 1014.6mb 89f
1:15pm 14 18 mph 1014.9mb 89f
12:55pm 9 17 mph 1015.2mb 89f
12:15pm 10
mph
1015.2mb 89f
11:55am 10 16 mph 1015.6mb 88f
11:15am 13
mph
1015.6mb 88f
10:55am 13 17 mph 1015.6mb 87f
10:15am 10
mph
1015.6mb 87f
9:55am 12
mph
1015.6mb 87f
9:15am 13
mph
1015.2mb 85f
8:55am 10
mph
1015.2mb 84f
8:15am 10
mph
1014.9mb 84f
7:55am 10 16 mph 1014.6mb 83f
7:15am 10
mph
1014.2mb 83f
6:55am 12
mph
1014.2mb 82f
6:15am 12
mph
1014.2mb 82f
5:55am 14
mph
1013.9mb 83f
5:15am 12 16 mph 1013.9mb 83f
4:55am 10 18 mph 1013.9mb 83f
4:15am 16
mph
1013.5mb 83f
3:55am 15 22 mph 1013.5mb 83f
3:15am 14 20 mph 1013.9mb 83f
2:55am 14 18 mph 1013.9mb 83f
2:15am 13 17 mph 1013.9mb 83f
1:55am 14
mph
1014.2mb 83f
1:15am 12
mph
1014.6mb 84f
12:55am 10
mph
1014.6mb 84f
12:15am 15 20 mph 1014.6mb 84f
Fri 07/21 11:55pm 14
mph
1014.6mb 84f